TimeEDT,TemperatureF,Dew PointF,Humidity,Sea Level PressureIn,VisibilityMPH,Wind Direction,Wind SpeedMPH,Gust SpeedMPH,PrecipitationIn,Events,Conditions,WindDirDegrees,DateUTC
12:53 AM,75.0,71.1,87,29.98,7.0,Calm,Calm,-,N/A,,Haze,0,2013-07-10 04:53:00
1:53 AM,73.9,71.1,91,29.96,7.0,Calm,Calm,-,N/A,,Haze,0,2013-07-10 05:53:00
2:53 AM,73.0,69.1,87,29.95,8.0,SSE,3.5,-,N/A,,Haze,160,2013-07-10 06:53:00
3:53 AM,72.0,69.1,91,29.95,7.0,Calm,Calm,-,N/A,,Haze,0,2013-07-10 07:53:00
4:53 AM,72.0,69.1,91,29.94,6.0,Calm,Calm,-,N/A,,Haze,0,2013-07-10 08:53:00
5:53 AM,73.0,70.0,90,29.94,5.0,Calm,Calm,-,N/A,,Haze,0,2013-07-10 09:53:00
6:53 AM,73.9,71.1,91,29.94,7.0,Calm,Calm,-,N/A,,Haze,0,2013-07-10 10:53:00
7:12 AM,75.2,69.8,83,29.94,6.0,Calm,Calm,-,N/A,,Haze,0,2013-07-10 11:12:00
7:53 AM,77.0,71.1,82,29.93,7.0,Calm,Calm,-,N/A,,Haze,0,2013-07-10 11:53:00
7:57 AM,77.0,71.6,83,29.94,6.0,South,3.5,-,N/A,,Haze,180,2013-07-10 11:57:00
8:53 AM,78.1,72.0,81,29.92,6.0,SE,3.5,-,N/A,,Haze,140,2013-07-10 12:53:00
9:53 AM,78.1,72.0,81,29.91,5.0,South,5.8,-,N/A,,Haze,170,2013-07-10 13:53:00
10:53 AM,80.1,73.0,79,29.90,6.0,South,4.6,-,N/A,,Haze,170,2013-07-10 14:53:00
11:53 AM,81.0,73.0,77,29.88,6.0,WSW,5.8,-,0.01,,Haze,240,2013-07-10 15:53:00
12:26 PM,78.8,73.4,83,29.88,8.0,SSE,6.9,-,0.00,,Haze,150,2013-07-10 16:26:00
12:53 PM,82.9,75.0,77,29.85,6.0,SSW,6.9,-,0.00,,Haze,210,2013-07-10 16:53:00
1:53 PM,82.9,73.0,72,29.83,7.0,SSW,6.9,-,0.01,,Haze,210,2013-07-10 17:53:00
2:53 PM,86.0,72.0,63,29.81,10.0,SW,13.8,18.4,N/A,,Haze,230,2013-07-10 18:53:00
3:53 PM,84.0,72.0,67,29.80,10.0,SW,6.9,-,N/A,,Haze,220,2013-07-10 19:53:00
4:53 PM,82.0,73.0,74,29.79,10.0,SW,3.5,-,0.03,,Partly Cloudy,230,2013-07-10 20:53:00
5:53 PM,82.9,73.9,74,29.77,10.0,SW,4.6,-,N/A,,Partly Cloudy,230,2013-07-10 21:53:00
6:53 PM,84.0,72.0,67,29.79,10.0,SSW,9.2,-,N/A,,Clear,210,2013-07-10 22:53:00
7:53 PM,82.9,71.1,67,29.80,10.0,Variable,3.5,-,N/A,,Clear,0,2013-07-10 23:53:00
8:53 PM,81.0,71.1,72,29.80,10.0,South,3.5,-,N/A,,Clear,180,2013-07-11 00:53:00
9:53 PM,79.0,71.1,77,29.81,10.0,South,3.5,-,N/A,,Clear,190,2013-07-11 01:53:00
10:53 PM,78.1,71.1,79,29.81,10.0,Calm,Calm,-,N/A,,Clear,0,2013-07-11 02:53:00
11:53 PM,75.0,71.1,87,29.80,9.0,Calm,Calm,-,N/A,,Clear,0,2013-07-11 03:53:00